| time (UTC) | temp F | wind direction | speed MPH | gust MPH | rain 1hr in | rain 24hr in | rain mn in | humidity % | barometer mb |
| 20260505034439 | 54 | 238 | 0.0 | 2.0 | 0.00 | 0.00 | 0.00 | 71 | 1009.9 |
| 20260505032938 | 54 | 184 | 0.0 | 1.0 | 0.00 | 0.00 | 0.00 | 70 | 1010.0 |
| 20260505031438 | 55 | 233 | 0.0 | 2.0 | 0.00 | 0.00 | 0.00 | 68 | 1009.9 |
| 20260505025941 | 55 | 177 | 0.0 | 2.0 | 0.00 | 0.00 | 0.00 | 67 | 1010.0 |
| 20260505024440 | 56 | 177 | 0.0 | 2.0 | 0.00 | 0.00 | 0.00 | 65 | 1010.0 |
| 20260505022940 | 56 | 232 | 0.0 | 3.0 | 0.00 | 0.00 | 0.00 | 64 | 1010.2 |
| 20260505021437 | 56 | 237 | 0.0 | 2.0 | 0.00 | 0.00 | 0.00 | 63 | 1010.3 |
| 20260505015939 | 57 | 217 | 0.0 | 3.0 | 0.00 | 0.00 | 0.00 | 61 | 1010.1 |
| 20260505014441 | 57 | 225 | 0.0 | 3.0 | 0.00 | 0.00 | 0.00 | 60 | 1010.1 |
| 20260505012941 | 58 | 150 | 1.0 | 2.0 | 0.00 | 0.00 | 0.00 | 58 | 1010.0 |
| 20260505011442 | 59 | 148 | 0.0 | 4.0 | 0.00 | 0.00 | 0.00 | 56 | 1009.8 |
| 20260505005938 | 59 | 247 | 0.0 | 4.0 | 0.00 | 0.00 | 0.00 | 55 | 1009.6 |
| 20260505004437 | 60 | 223 | 2.0 | 6.0 | 0.00 | 0.00 | 0.00 | 55 | 1009.2 |
| 20260505002941 | 61 | 134 | 0.0 | 2.0 | 0.00 | 0.00 | 0.00 | 53 | 1008.8 |
| 20260505001442 | 61 | 209 | 1.0 | 4.0 | 0.00 | 0.00 | 0.00 | 52 | 1008.1 |
| 20260504235943 | 62 | 249 | 2.0 | 4.0 | 0.00 | 0.00 | 0.00 | 51 | 1007.7 |
| 20260504234440 | 63 | 223 | 1.0 | 6.0 | 0.00 | 0.00 | 0.00 | 50 | 1007.5 |
| 20260504232939 | 63 | 165 | 1.0 | 6.0 | 0.00 | 0.00 | 0.00 | 49 | 1007.4 |
| 20260504231437 | 64 | 141 | 2.0 | 8.0 | 0.00 | 0.00 | 0.00 | 48 | 1007.3 |
| 20260504225940 | 65 | 262 | 2.0 | 6.0 | 0.00 | 0.00 | 0.00 | 47 | 1007.0 |
| 20260504224441 | 66 | 248 | 2.0 | 5.0 | 0.00 | 0.00 | 0.00 | 44 | 1006.8 |
| 20260504222939 | 67 | 146 | 1.0 | 11.0 | 0.00 | 0.00 | 0.00 | 42 | 1006.6 |
| 20260504221441 | 69 | 209 | 1.0 | 8.0 | 0.00 | 0.00 | 0.00 | 41 | 1006.6 |
| 20260504215942 | 70 | 244 | 4.0 | 7.0 | 0.00 | 0.00 | 0.00 | 37 | 1006.5 |
| 20260504214438 | 71 | 269 | 1.0 | 5.0 | 0.00 | 0.00 | 0.00 | 36 | 1006.5 |
| 20260504212937 | 71 | 219 | 3.0 | 5.0 | 0.00 | 0.00 | 0.00 | 34 | 1006.4 |
| 20260504211441 | 72 | 240 | 2.0 | 6.0 | 0.00 | 0.00 | 0.00 | 34 | 1006.3 |
| 20260504205942 | 72 | 264 | 3.0 | 9.0 | 0.00 | 0.00 | 0.00 | 34 | 1006.4 |
| 20260504204440 | 72 | 215 | 2.0 | 7.0 | 0.00 | 0.00 | 0.00 | 33 | 1006.2 |
| 20260504202940 | 72 | 250 | 3.0 | 8.0 | 0.00 | 0.00 | 0.00 | 32 | 1006.2 |
| 20260504201441 | 71 | 314 | 4.0 | 12.0 | 0.00 | 0.00 | 0.00 | 32 | 1006.3 |
| 20260504195939 | 73 | 228 | 3.0 | 7.0 | 0.00 | 0.00 | 0.00 | 32 | 1006.4 |
| 20260504194442 | 73 | 279 | 2.0 | 8.0 | 0.00 | 0.00 | 0.00 | 30 | 1006.5 |
| 20260504192941 | 73 | 63 | 3.0 | 8.0 | 0.00 | 0.00 | 0.00 | 30 | 1006.4 |
| 20260504191441 | 73 | 194 | 5.0 | 12.0 | 0.00 | 0.00 | 0.00 | 29 | 1006.5 |
| 20260504185940 | 73 | 259 | 1.0 | 7.0 | 0.00 | 0.00 | 0.00 | 29 | 1006.6 |
| 20260504184440 | 73 | 237 | 4.0 | 8.0 | 0.00 | 0.00 | 0.00 | 29 | 1006.8 |
| 20260504182940 | 72 | 250 | 2.0 | 11.0 | 0.00 | 0.00 | 0.00 | 31 | 1006.9 |
| 20260504181444 | 72 | 255 | 2.0 | 9.0 | 0.00 | 0.00 | 0.00 | 30 | 1006.8 |
| 20260504175941 | 72 | 243 | 5.0 | 10.0 | 0.00 | 0.00 | 0.00 | 30 | 1007.0 |
| 20260504174440 | 72 | 236 | 3.0 | 9.0 | 0.00 | 0.00 | 0.00 | 31 | 1007.3 |
| 20260504172940 | 71 | 226 | 4.0 | 9.0 | 0.00 | 0.00 | 0.00 | 32 | 1007.3 |
| 20260504171441 | 70 | 246 | 5.0 | 14.0 | 0.00 | 0.00 | 0.00 | 32 | 1007.3 |
| 20260504081445 | 44 | 243 | 0.0 | 1.0 | 0.00 | 0.02 | 0.00 | 64 | 1010.2 |
| 20260504045945 | 37 | 234 | 0.0 | 0.0 | 0.00 | 0.02 | 0.00 | 83 | 1010.1 |
| 20260504044446 | 36 | 234 | 0.0 | 0.0 | 0.00 | 0.02 | 0.00 | 83 | 1010.1 |
| 20260504042944 | 36 | 234 | 0.0 | 0.0 | 0.00 | 0.02 | 0.00 | 83 | 1010.2 |
| 20260504041442 | 36 | 234 | 0.0 | 0.0 | 0.00 | 0.02 | 0.00 | 83 | 1010.0 |
| 20260504035942 | 35 | 234 | 0.0 | 0.0 | 0.00 | 0.02 | 0.00 | 83 | 1009.8 |